{"data":{"norad_id":65985,"epoch":"2026-09-20T14:27:51.369696Z","epoch_age_seconds":131438,"freshness":"FRESH","line1":"1 65985U 25230M   26263.60267789  .00000122  00000+0  97456-4 0  9998","line2":"2 65985  81.2963 123.2171 0001975 270.1681  89.9249 13.84769926 47016","mean_motion":13.84769926,"eccentricity":0.0001975,"inclination_deg":81.2963,"raan_deg":123.2171,"arg_perigee_deg":270.1681,"mean_anomaly_deg":89.9249,"bstar":9.7456e-5,"rev_number":4701,"period_min":103.98839352033,"perigee_km":945.57027816627,"apogee_km":948.46371399472,"semimajor_km":7325.1539960805,"source":"CELESTRAK","updated_at":"2026-09-21T09:00:15.689150Z"}}